• In Austria
  • List of Countries
  • For 7 days
  • Water Temperature
  • Satellite Maps
  • Weather Map
  • News
  • Weather Widgets
  • user-avatar
    Login

    Hourly Weather Samsonovo

    Today, 23 July, Monday

    Time Temperature Precipitation Wind Pressure Humidity
    00:00 +20°C° 0 mm 1 mps 747 mmHg 97%
    01:00 +20°C° 0 mm 1 mps 747 mmHg 98%
    02:00 +19°C° 0 mm 1 mps 747 mmHg 98%
    03:00 +19°C° 0 mm 1 mps 747 mmHg 98%
    04:00 +19°C° 0 mm 1 mps 747 mmHg 98%
    05:00 +19°C° 0 mm 1 mps 747 mmHg 98%
    06:00 +20°C° 0.1 mm 2 mps 748 mmHg 94%
    07:00 +21°C° 0.1 mm 2 mps 748 mmHg 91%
    08:00 +23°C° 0.1 mm 2 mps 748 mmHg 87%
    09:00 +24°C° 0.7 mm 2 mps 748 mmHg 84%
    10:00 +25°C° 0.7 mm 2 mps 748 mmHg 80%
    11:00 +25°C° 0.7 mm 3 mps 748 mmHg 76%
    12:00 +26°C° 0.3 mm 3 mps 748 mmHg 73%
    13:00 +26°C° 0.3 mm 3 mps 748 mmHg 70%
    14:00 +27°C° 0.3 mm 2 mps 748 mmHg 66%
    15:00 +26°C° 0.2 mm 2 mps 748 mmHg 68%
    16:00 +26°C° 0.2 mm 2 mps 748 mmHg 69%
    17:00 +26°C° 0.2 mm 2 mps 748 mmHg 70%
    18:00 +24°C° 0 mm 2 mps 748 mmHg 76%
    19:00 +23°C° 0 mm 2 mps 748 mmHg 83%
    20:00 +22°C° 0 mm 1 mps 748 mmHg 89%
    21:00 +21°C° 0 mm 1 mps 748 mmHg 91%
    22:00 +19°C° 0 mm 2 mps 749 mmHg 94%
    23:00 +18°C° 0 mm 2 mps 749 mmHg 97%

    Tomorrow, 24 July, Tuesday

    Time Temperature Precipitation Wind Pressure Humidity
    00:00 +18°C° 0 mm 1 mps 749 mmHg 97%
    01:00 +18°C° 0 mm 1 mps 749 mmHg 98%
    02:00 +18°C° 0 mm 1 mps 749 mmHg 98%
    03:00 +17°C° 0 mm 2 mps 749 mmHg 97%
    04:00 +17°C° 0 mm 2 mps 749 mmHg 97%
    05:00 +17°C° 0 mm 2 mps 749 mmHg 96%
    06:00 +18°C° 0 mm 2 mps 749 mmHg 91%
    07:00 +20°C° 0 mm 2 mps 749 mmHg 85%
    08:00 +21°C° 0 mm 2 mps 750 mmHg 79%
    09:00 +23°C° 0.1 mm 2 mps 750 mmHg 76%
    10:00 +24°C° 0.1 mm 2 mps 750 mmHg 73%
    11:00 +25°C° 0.1 mm 2 mps 750 mmHg 69%
    12:00 +25°C° 0.8 mm 2 mps 749 mmHg 72%
    13:00 +26°C° 0.8 mm 3 mps 749 mmHg 74%
    14:00 +26°C° 0.8 mm 3 mps 749 mmHg 77%
    15:00 +25°C° 0.7 mm 2 mps 749 mmHg 78%
    16:00 +25°C° 0.7 mm 2 mps 749 mmHg 80%
    17:00 +25°C° 0.7 mm 2 mps 749 mmHg 82%
    18:00 +24°C° 0.3 mm 2 mps 749 mmHg 85%
    19:00 +23°C° 0.3 mm 2 mps 749 mmHg 89%
    20:00 +21°C° 0.3 mm 2 mps 750 mmHg 93%
    21:00 +20°C° 0 mm 2 mps 750 mmHg 94%
    22:00 +20°C° 0 mm 2 mps 750 mmHg 95%
    23:00 +20°C° 0 mm 1 mps 750 mmHg 97%

    Day after tomorrow, 25 July, Wednesday

    Time Temperature Precipitation Wind Pressure Humidity
    00:00 +19°C° 0 mm 2 mps 750 mmHg 97%
    01:00 +19°C° 0 mm 2 mps 750 mmHg 97%
    02:00 +18°C° 0 mm 2 mps 750 mmHg 98%
    03:00 +18°C° 0 mm 2 mps 750 mmHg 98%
    04:00 +18°C° 0 mm 2 mps 751 mmHg 98%
    05:00 +18°C° 0 mm 2 mps 751 mmHg 98%
    06:00 +20°C° 0 mm 2 mps 751 mmHg 94%
    07:00 +21°C° 0 mm 2 mps 751 mmHg 89%
    08:00 +24°C° 0 mm 2 mps 751 mmHg 85%
    09:00 +25°C° 0 mm 2 mps 751 mmHg 77%
    10:00 +27°C° 0 mm 2 mps 751 mmHg 69%
    11:00 +29°C° 0 mm 2 mps 751 mmHg 61%
    12:00 +29°C° 0.4 mm 2 mps 751 mmHg 64%
    13:00 +29°C° 0.4 mm 2 mps 751 mmHg 67%
    14:00 +29°C° 0.4 mm 3 mps 751 mmHg 70%
    15:00 +28°C° 0.5 mm 3 mps 751 mmHg 72%
    16:00 +28°C° 0.5 mm 3 mps 751 mmHg 74%
    17:00 +27°C° 0.5 mm 3 mps 751 mmHg 76%
    18:00 +26°C° 0 mm 2 mps 751 mmHg 81%
    19:00 +25°C° 0 mm 2 mps 751 mmHg 85%
    20:00 +23°C° 0 mm 2 mps 752 mmHg 89%
    21:00 +21°C° 0 mm 2 mps 752 mmHg 90%
    22:00 +21°C° 0 mm 2 mps 752 mmHg 90%
    23:00 +20°C° 0 mm 2 mps 752 mmHg 90%

    26 July, Thursday

    Time Temperature Precipitation Wind Pressure Humidity
    00:00 +19°C° 0 mm 2 mps 752 mmHg 91%
    01:00 +18°C° 0 mm 2 mps 752 mmHg 91%
    02:00 +17°C° 0 mm 2 mps 752 mmHg 92%
    03:00 +17°C° 0 mm 2 mps 752 mmHg 90%
    04:00 +17°C° 0 mm 2 mps 752 mmHg 88%
    05:00 +17°C° 0 mm 2 mps 752 mmHg 87%
    06:00 +19°C° 0 mm 3 mps 752 mmHg 81%
    07:00 +20°C° 0 mm 3 mps 752 mmHg 76%
    08:00 +22°C° 0 mm 3 mps 752 mmHg 71%
    09:00 +25°C° 0 mm 3 mps 752 mmHg 66%
    10:00 +27°C° 0 mm 3 mps 752 mmHg 61%
    11:00 +29°C° 0 mm 4 mps 752 mmHg 56%
    12:00 +29°C° 0.2 mm 4 mps 752 mmHg 56%
    13:00 +30°C° 0.2 mm 4 mps 752 mmHg 56%
    14:00 +30°C° 0.2 mm 4 mps 752 mmHg 56%
    15:00 +30°C° 0.2 mm 3 mps 752 mmHg 58%
    16:00 +30°C° 0.2 mm 3 mps 752 mmHg 59%
    17:00 +30°C° 0.2 mm 3 mps 752 mmHg 61%
    18:00 +27°C° 0.4 mm 3 mps 752 mmHg 70%
    19:00 +25°C° 0.4 mm 3 mps 752 mmHg 78%
    20:00 +23°C° 0.4 mm 2 mps 752 mmHg 87%
    21:00 +23°C° 0 mm 2 mps 752 mmHg 88%
    22:00 +21°C° 0 mm 2 mps 753 mmHg 90%
    23:00 +20°C° 0 mm 2 mps 753 mmHg 91%

    27 July, Friday

    Time Temperature Precipitation Wind Pressure Humidity
    00:00 +20°C° 0.2 mm 2 mps 753 mmHg 93%
    01:00 +20°C° 0.2 mm 2 mps 753 mmHg 94%
    02:00 +20°C° 0.2 mm 2 mps 753 mmHg 95%
    03:00 +19°C° 0 mm 2 mps 753 mmHg 96%
    04:00 +19°C° 0 mm 2 mps 753 mmHg 96%
    05:00 +19°C° 0 mm 2 mps 753 mmHg 97%
    06:00 +20°C° 0 mm 2 mps 754 mmHg 93%
    07:00 +23°C° 0 mm 2 mps 754 mmHg 89%
    08:00 +24°C° 0 mm 2 mps 754 mmHg 85%
    09:00 +26°C° 0 mm 2 mps 754 mmHg 77%
    10:00 +28°C° 0 mm 3 mps 754 mmHg 68%
    11:00 +30°C° 0 mm 3 mps 754 mmHg 60%
    12:00 +30°C° 0.6 mm 3 mps 754 mmHg 59%
    13:00 +31°C° 0.6 mm 3 mps 754 mmHg 57%
    14:00 +31°C° 0.6 mm 3 mps 754 mmHg 55%
    15:00 +31°C° 0.4 mm 3 mps 754 mmHg 58%
    16:00 +30°C° 0.4 mm 3 mps 754 mmHg 61%
    17:00 +29°C° 0.4 mm 3 mps 754 mmHg 63%
    18:00 +28°C° 0.4 mm 3 mps 754 mmHg 69%
    19:00 +26°C° 0.4 mm 2 mps 755 mmHg 76%
    20:00 +25°C° 0.4 mm 2 mps 755 mmHg 82%
    21:00 +24°C° 0 mm 2 mps 755 mmHg 83%
    22:00 +23°C° 0 mm 2 mps 755 mmHg 84%
    23:00 +21°C° 0 mm 2 mps 755 mmHg 85%

    28 July, Saturday

    Time Temperature Precipitation Wind Pressure Humidity
    00:00 +21°C° 0 mm 2 mps 755 mmHg 86%
    01:00 +20°C° 0 mm 2 mps 756 mmHg 87%
    02:00 +20°C° 0 mm 2 mps 756 mmHg 88%
    03:00 +20°C° 0 mm 2 mps 756 mmHg 89%
    04:00 +20°C° 0 mm 2 mps 756 mmHg 89%
    05:00 +20°C° 0 mm 2 mps 756 mmHg 90%
    06:00 +23°C° 0 mm 2 mps 756 mmHg 84%
    07:00 +25°C° 0 mm 2 mps 756 mmHg 77%
    08:00 +27°C° 0 mm 2 mps 756 mmHg 71%
    09:00 +28°C° 0 mm 3 mps 756 mmHg 63%
    10:00 +30°C° 0 mm 3 mps 756 mmHg 55%
    11:00 +31°C° 0 mm 3 mps 756 mmHg 47%
    12:00 +31°C° 0 mm 3 mps 756 mmHg 46%
    13:00 +33°C° 0 mm 3 mps 756 mmHg 45%
    14:00 +33°C° 0 mm 3 mps 756 mmHg 43%
    15:00 +32°C° 0 mm 2 mps 756 mmHg 48%
    16:00 +31°C° 0 mm 2 mps 756 mmHg 52%
    17:00 +31°C° 0 mm 2 mps 756 mmHg 56%
    18:00 +29°C° 0 mm 2 mps 756 mmHg 62%
    19:00 +27°C° 0 mm 2 mps 756 mmHg 69%
    20:00 +25°C° 0 mm 2 mps 756 mmHg 75%
    21:00 +24°C° 0 mm 2 mps 756 mmHg 76%
    22:00 +23°C° 0 mm 2 mps 756 mmHg 78%
    23:00 +22°C° 0 mm 1 mps 757 mmHg 79%
    Show more